EW1795 Weather Reports


Display with metric or nautical units.
time (UTC)temp
F
wind
direction
speed
MPH
gust
MPH
rain 1hr
in
rain 24hr
in
rain mn
in
humidity
%
barometer
mb
20260906201558 82 176 8.0 14.0 0.00 0.00 0.00 66 1014.9
20260906200142 82 165 8.0 13.0 0.00 0.00 0.00 68 1014.9
20260906194542 82 156 5.0 11.0 0.00 0.00 0.00 68 1015.2
20260906193039 82 186 6.0 11.0 0.00 0.00 0.00 66 1015.3
20260906190005 82 157 4.0 9.0 0.00 0.00 0.00 69 1015.6
20260906184503 81 152 3.0 9.0 0.00 0.00 0.00 70 1015.8
20260906183059 80 148 4.0 12.0 0.00 0.00 0.00 70 1016.0
20260906181554 79 157 4.0 11.0 0.00 0.00 0.00 75 1016.1
20260906180151 78 158 6.0 15.0 0.00 0.00 0.00 76 1016.4
20260906174558 78 238 4.0 11.0 0.00 0.00 0.00 77 1016.7
20260906173052 77 164 6.0 12.0 0.00 0.00 0.00 77 1017.0
20260906171556 76 165 4.0 10.0 0.00 0.00 0.00 79 1017.2
20260906170149 74 159 6.0 10.0 0.00 0.00 0.00 81 1017.6
20260906164551 74 154 5.0 9.0 0.00 0.00 0.00 81 1017.8
20260906163056 73 214 5.0 10.0 0.00 0.00 0.00 81 1017.9
20260906161546 73 158 2.0 8.0 0.00 0.00 0.00 83 1017.9
20260906160143 71 176 2.0 8.0 0.00 0.00 0.00 86 1017.9
20260906154542 69 162 0.0 6.0 0.00 0.00 0.00 89 1017.8
20260906153042 68 158 0.0 2.0 0.00 0.00 0.00 89 1018.0
20260906151541 69 160 0.0 3.0 0.00 0.00 0.00 87 1018.0
20260906150139 68 158 0.0 7.0 0.00 0.00 0.00 89 1018.0
20260906144539 66 178 2.0 7.0 0.00 0.00 0.00 92 1017.9
20260906143038 64 185 3.0 6.0 0.00 0.00 0.00 95 1017.9
20260906141538 64 155 2.0 6.0 0.00 0.00 0.00 96 1017.9
20260906140134 63 152 0.0 6.0 0.00 0.00 0.00 96 1018.1
20260906134552 63 159 2.0 9.0 0.00 0.00 0.00 97 1018.2
20260906133054 63 166 4.0 9.0 0.00 0.00 0.00 96 1018.1
20260906131553 62 160 4.0 8.0 0.00 0.00 0.00 96 1018.0
20260906124550 62 164 2.0 8.0 0.00 0.00 0.00 97 1018.3
20260906123049 62 162 3.0 7.0 0.00 0.00 0.00 98 1018.2
20260906121554 61 192 0.0 8.0 0.00 0.00 0.00 98 1018.4
20260906120148 61 181 3.0 8.0 0.00 0.00 0.00 98 1017.8
20260906114547 61 147 2.0 7.0 0.00 0.00 0.00 98 1017.9
20260906113051 62 156 1.0 7.0 0.00 0.00 0.00 99 1018.1
20260906111604 61 67 0.0 0.0 0.00 0.00 0.00 99 1018.2
20260906110143 61 172 1.0 5.0 0.00 0.00 0.00 99 1017.7
20260906104541 61 134 0.0 0.0 0.00 0.00 0.00 99 1017.7
20260906103043 62 112 0.0 5.0 0.00 0.00 0.00 99 1017.3
20260906101540 62 165 0.0 5.0 0.00 0.00 0.00 99 1017.1
20260906100138 61 154 3.0 7.0 0.00 0.00 0.00 99 1016.9
20260906094602 61 158 0.0 5.0 0.00 0.00 0.00 99 1016.9
20260906093058 61 150 2.0 7.0 0.00 0.00 0.00 99 1016.9
20260906091603 62 133 2.0 9.0 0.00 0.00 0.00 99 1016.8
20260906090156 62 154 2.0 9.0 0.00 0.00 0.00 99 1016.9
20260906084555 62 167 2.0 6.0 0.00 0.00 0.00 99 1017.1
20260906083055 62 143 2.0 9.0 0.00 0.00 0.00 99 1017.0
20260906081553 62 196 4.0 9.0 0.00 0.00 0.00 99 1017.1
20260906080152 61 176 3.0 6.0 0.00 0.00 0.00 99 1017.1
20260906074553 61 154 0.0 3.0 0.00 0.00 0.00 98 1017.0
20260906073052 61 133 0.0 1.0 0.00 0.00 0.00 98 1017.0
20260906071559 61 145 0.0 4.0 0.00 0.00 0.00 98 1017.2
20260906070148 61 129 0.0 1.0 0.00 0.00 0.00 98 1017.3
20260906064550 62 143 0.0 2.0 0.00 0.00 0.00 97 1017.4
20260906063055 62 150 0.0 1.0 0.00 0.00 0.00 97 1017.5
20260906061548 63 145 0.0 1.0 0.00 0.00 0.00 96 1017.5
20260906060144 63 133 0.0 1.0 0.00 0.00 0.00 95 1017.6
20260906054646 64 124 0.0 3.0 0.00 0.00 0.00 95 1017.6
20260906053050 64 139 0.0 4.0 0.00 0.00 0.00 94 1017.5
20260906051541 64 164 3.0 5.0 0.00 0.00 0.00 93 1017.5
20260906050140 65 166 2.0 6.0 0.00 0.00 0.00 93 1017.6
20260906044555 65 143 2.0 6.0 0.00 0.00 0.00 94 1017.5
20260906043055 65 164 2.0 6.0 0.00 0.00 0.00 94 1017.6
20260906041557 65 154 0.0 3.0 0.00 0.00 0.00 94 1017.6
20260906040154 65 170 2.0 5.0 0.00 0.00 0.00 94 1017.2
20260906034553 65 155 3.0 9.0 0.00 0.00 0.00 94 1017.0
20260906033052 65 152 4.0 11.0 0.00 0.00 0.00 95 1017.0
20260906031550 64 174 3.0 8.0 0.00 0.00 0.00 95 1017.1
20260906030151 64 152 1.0 4.0 0.00 0.00 0.00 96 1017.3
20260906024600 64 143 0.0 2.0 0.00 0.00 0.00 96 1017.2
20260906023048 64 188 0.0 4.0 0.00 0.00 0.00 96 1017.1
20260906021546 64 155 1.0 4.0 0.00 0.00 0.00 96 1016.8
20260906020148 64 129 0.0 2.0 0.00 0.00 0.00 95 1016.7
20260906014559 65 147 0.0 2.0 0.00 0.00 0.00 94 1016.5
20260906013045 65 147 0.0 3.0 0.00 0.00 0.00 94 1016.4
20260906011544 65 133 0.0 4.0 0.00 0.00 0.00 93 1015.8
20260906010143 66 134 0.0 4.0 0.00 0.00 0.00 93 1015.7
20260906004543 66 138 2.0 6.0 0.00 0.00 0.00 92 1015.3
20260906003049 67 124 2.0 4.0 0.00 0.00 0.00 90 1015.4
20260906001539 67 129 1.0 4.0 0.00 0.00 0.00 90 1015.4
20260906000140 67 151 1.0 4.0 0.00 0.00 0.00 89 1015.4
20260905234603 68 145 1.0 4.0 0.00 0.00 0.00 88 1015.5
20260905231554 69 150 4.0 8.0 0.00 0.00 0.00 85 1015.6
20260905230153 69 141 4.0 7.0 0.00 0.00 0.00 84 1015.5
20260905224549 69 142 3.0 10.0 0.00 0.00 0.00 85 1015.5
20260905223048 68 158 4.0 11.0 0.00 0.00 0.00 86 1015.5
20260905221547 68 160 6.0 12.0 0.00 0.00 0.00 87 1015.2
20260905220146 68 148 3.0 10.0 0.00 0.00 0.00 88 1015.4
20260905214545 68 176 6.0 12.0 0.00 0.00 0.00 88 1015.5
20260905213046 67 124 4.0 9.0 0.00 0.00 0.00 89 1014.6
20260905211544 67 121 2.0 11.0 0.00 0.00 0.00 90 1015.4
20260905210142 67 144 4.0 8.0 0.00 0.00 0.00 87 1015.2
20260905204553 68 122 2.0 8.0 0.00 0.00 0.00 87 1015.2
20260905203043 68 152 4.0 8.0 0.00 0.00 0.00 87 1015.7